Location: *
(50.0228°S, 177.2688°W)
Time: 12:51:26
(UTC+00:00)

STARLINK-1055 - Pass Details

Date: 07 April 2020
Orbit: 548 x 551 km, 53.0° (Epoch: 26 May)

Event Time Altitude Azimuth Distance (km) Brightness Sun altitude
Rises 07:20:42 0° 259° (W) 2,751 8.8 -19.7°
Reaches altitude 10° 07:22:58 10° 254° (WSW) 1,855 7.5 -20.0°
Maximum altitude 07:27:09 58° 174° (S) 662 4.0 -20.7°
Enters shadow 07:27:54 49° 131° (SE) 732 3.9 -20.8°
